owner,sensor,date,latitude,longitude,vertical_datum,sea_water_practical_salinity,qcFlag 
TCOON,ioos:station:TCOON:127:1,2016-11-01T00:30:00Z,28.2598,-96.7737,0.0,15.0,1111122 
TCOON,ioos:station:TCOON:127:1,2016-11-01T01:30:00Z,28.2598,-96.7737,0.0,15.2,1111122 
TCOON,ioos:station:TCOON:127:1,2016-11-01T02:30:00Z,28.2598,-96.7737,0.0,16.0,1111122 
TCOON,ioos:station:TCOON:127:1,2016-11-01T03:30:00Z,28.2598,-96.7737,0.0,16.5,1111122 
TCOON,ioos:station:TCOON:127:1,2016-11-01T04:30:00Z,28.2598,-96.7737,0.0,17.2,1111122 
TCOON,ioos:station:TCOON:127:1,2016-11-01T05:30:00Z,28.2598,-96.7737,0.0,17.0,1111122 
TCOON,ioos:station:TCOON:127:1,2016-11-01T06:30:00Z,28.2598,-96.7737,0.0,16.9,1111122 
TCOON,ioos:station:TCOON:127:1,2016-11-01T07:30:00Z,28.2598,-96.7737,0.0,16.2,1111122 
TCOON,ioos:station:TCOON:127:1,2016-11-01T08:30:00Z,28.2598,-96.7737,0.0,16.0,1111122 
TCOON,ioos:station:TCOON:127:1,2016-11-01T10:30:00Z,28.2598,-96.7737,0.0,16.5,1111122 
TCOON,ioos:station:TCOON:127:1,2016-11-01T11:30:00Z,28.2598,-96.7737,0.0,17.0,1111122 
TCOON,ioos:station:TCOON:127:1,2016-11-01T12:30:00Z,28.2598,-96.7737,0.0,16.9,1111122 
TCOON,ioos:station:TCOON:127:1,2016-11-01T13:30:00Z,28.2598,-96.7737,0.0,17.1,1111122 
TCOON,ioos:station:TCOON:127:1,2016-11-01T14:30:00Z,28.2598,-96.7737,0.0,17.6,1111122 
TCOON,ioos:station:TCOON:127:1,2016-11-01T15:30:00Z,28.2598,-96.7737,0.0,17.7,1111122 
TCOON,ioos:station:TCOON:127:1,2016-11-01T16:30:00Z,28.2598,-96.7737,0.0,18.2,1111122 
TCOON,ioos:station:TCOON:127:1,2016-11-01T18:30:00Z,28.2598,-96.7737,0.0,17.6,1111122 
TCOON,ioos:station:TCOON:127:1,2016-11-01T19:30:00Z,28.2598,-96.7737,0.0,17.4,1111122 
TCOON,ioos:station:TCOON:127:1,2016-11-01T22:30:00Z,28.2598,-96.7737,0.0,17.6,1111122 
TCOON,ioos:station:TCOON:127:1,2016-11-01T23:30:00Z,28.2598,-96.7737,0.0,18.6,1111122 
TCOON,ioos:station:TCOON:127:1,2016-11-02T00:30:00Z,28.2598,-96.7737,0.0,18.3,1111122 
TCOON,ioos:station:TCOON:127:1,2016-11-02T18:30:00Z,28.2598,-96.7737,0.0,19.0,1111122 
TCOON,ioos:station:TCOON:127:1,2016-11-02T20:30:00Z,28.2598,-96.7737,0.0,18.9,1111122 
TCOON,ioos:station:TCOON:127:1,2016-11-03T03:30:00Z,28.2598,-96.7737,0.0,18.9,1111122 
TCOON,ioos:station:TCOON:127:1,2016-11-03T05:30:00Z,28.2598,-96.7737,0.0,18.9,1111122 
TCOON,ioos:station:TCOON:127:1,2016-11-03T06:30:00Z,28.2598,-96.7737,0.0,18.9,1111122 
TCOON,ioos:station:TCOON:127:1,2016-11-03T07:30:00Z,28.2598,-96.7737,0.0,18.8,1111122 
TCOON,ioos:station:TCOON:127:1,2016-11-03T09:30:00Z,28.2598,-96.7737,0.0,19.4,1111122 
TCOON,ioos:station:TCOON:127:1,2016-11-03T10:30:00Z,28.2598,-96.7737,0.0,19.9,1111122 
TCOON,ioos:station:TCOON:127:1,2016-11-03T11:30:00Z,28.2598,-96.7737,0.0,19.3,1111122 
TCOON,ioos:station:TCOON:127:1,2016-11-03T12:30:00Z,28.2598,-96.7737,0.0,19.2,1111122 
TCOON,ioos:station:TCOON:127:1,2016-11-03T13:30:00Z,28.2598,-96.7737,0.0,19.0,1111122 
TCOON,ioos:station:TCOON:127:1,2016-11-03T14:30:00Z,28.2598,-96.7737,0.0,19.0,1111122 
TCOON,ioos:station:TCOON:127:1,2016-11-03T15:30:00Z,28.2598,-96.7737,0.0,19.1,1111122 
TCOON,ioos:station:TCOON:127:1,2016-11-03T16:30:00Z,28.2598,-96.7737,0.0,19.2,1111122 
TCOON,ioos:station:TCOON:127:1,2016-11-03T17:30:00Z,28.2598,-96.7737,0.0,18.8,1111122 
TCOON,ioos:station:TCOON:127:1,2016-11-03T18:30:00Z,28.2598,-96.7737,0.0,18.5,1111122 
TCOON,ioos:station:TCOON:127:1,2016-11-03T19:30:00Z,28.2598,-96.7737,0.0,18.3,1111122 
TCOON,ioos:station:TCOON:127:1,2016-11-03T20:30:00Z,28.2598,-96.7737,0.0,18.1,1111122 
TCOON,ioos:station:TCOON:127:1,2016-11-03T21:30:00Z,28.2598,-96.7737,0.0,17.9,1111122 
TCOON,ioos:station:TCOON:127:1,2016-11-03T22:30:00Z,28.2598,-96.7737,0.0,18.0,1111122 
TCOON,ioos:station:TCOON:127:1,2016-11-03T23:30:00Z,28.2598,-96.7737,0.0,17.9,1111122 
TCOON,ioos:station:TCOON:127:1,2016-11-04T00:30:00Z,28.2598,-96.7737,0.0,17.9,1111122 
TCOON,ioos:station:TCOON:127:1,2016-11-04T01:30:00Z,28.2598,-96.7737,0.0,17.9,1111122 
TCOON,ioos:station:TCOON:127:1,2016-11-04T02:30:00Z,28.2598,-96.7737,0.0,17.9,1111122 
TCOON,ioos:station:TCOON:127:1,2016-11-04T03:30:00Z,28.2598,-96.7737,0.0,17.8,1111122 
TCOON,ioos:station:TCOON:127:1,2016-11-04T04:30:00Z,28.2598,-96.7737,0.0,17.8,1111122 
TCOON,ioos:station:TCOON:127:1,2016-11-04T06:30:00Z,28.2598,-96.7737,0.0,17.7,1111122 
TCOON,ioos:station:TCOON:127:1,2016-11-04T07:30:00Z,28.2598,-96.7737,0.0,17.7,1111122 
TCOON,ioos:station:TCOON:127:1,2016-11-04T09:30:00Z,28.2598,-96.7737,0.0,17.5,1111122 
TCOON,ioos:station:TCOON:127:1,2016-11-04T10:30:00Z,28.2598,-96.7737,0.0,17.5,1111122 
TCOON,ioos:station:TCOON:127:1,2016-11-04T11:30:00Z,28.2598,-96.7737,0.0,17.5,1111122 
TCOON,ioos:station:TCOON:127:1,2016-11-04T12:30:00Z,28.2598,-96.7737,0.0,17.4,1111122 
TCOON,ioos:station:TCOON:127:1,2016-11-04T13:30:00Z,28.2598,-96.7737,0.0,17.4,1111122 
TCOON,ioos:station:TCOON:127:1,2016-11-04T14:30:00Z,28.2598,-96.7737,0.0,17.5,1111122 
TCOON,ioos:station:TCOON:127:1,2016-11-04T15:30:00Z,28.2598,-96.7737,0.0,17.6,1111122 
TCOON,ioos:station:TCOON:127:1,2016-11-04T16:30:00Z,28.2598,-96.7737,0.0,17.5,1111122 
TCOON,ioos:station:TCOON:127:1,2016-11-04T17:30:00Z,28.2598,-96.7737,0.0,17.2,1111122 
TCOON,ioos:station:TCOON:127:1,2016-11-04T18:30:00Z,28.2598,-96.7737,0.0,17.3,1111122 
TCOON,ioos:station:TCOON:127:1,2016-11-04T19:30:00Z,28.2598,-96.7737,0.0,17.2,1111122 
TCOON,ioos:station:TCOON:127:1,2016-11-04T20:30:00Z,28.2598,-96.7737,0.0,17.3,1111122 
TCOON,ioos:station:TCOON:127:1,2016-11-04T21:30:00Z,28.2598,-96.7737,0.0,17.0,1111122 
TCOON,ioos:station:TCOON:127:1,2016-11-04T22:30:00Z,28.2598,-96.7737,0.0,16.9,1111122 
TCOON,ioos:station:TCOON:127:1,2016-11-04T23:30:00Z,28.2598,-96.7737,0.0,16.9,1111122 
TCOON,ioos:station:TCOON:127:1,2016-11-05T00:30:00Z,28.2598,-96.7737,0.0,16.9,1111122 
TCOON,ioos:station:TCOON:127:1,2016-11-05T01:30:00Z,28.2598,-96.7737,0.0,17.0,1111122 
TCOON,ioos:station:TCOON:127:1,2016-11-05T02:30:00Z,28.2598,-96.7737,0.0,17.0,1111122 
TCOON,ioos:station:TCOON:127:1,2016-11-05T11:30:00Z,28.2598,-96.7737,0.0,16.6,1111122 
TCOON,ioos:station:TCOON:127:1,2016-11-05T12:30:00Z,28.2598,-96.7737,0.0,16.6,1111122 
TCOON,ioos:station:TCOON:127:1,2016-11-05T13:30:00Z,28.2598,-96.7737,0.0,16.6,1111122 
TCOON,ioos:station:TCOON:127:1,2016-11-05T14:30:00Z,28.2598,-96.7737,0.0,16.5,1111122 
TCOON,ioos:station:TCOON:127:1,2016-11-05T15:30:00Z,28.2598,-96.7737,0.0,16.5,1111122 
TCOON,ioos:station:TCOON:127:1,2016-11-05T16:30:00Z,28.2598,-96.7737,0.0,16.4,1111122 
TCOON,ioos:station:TCOON:127:1,2016-11-05T17:30:00Z,28.2598,-96.7737,0.0,16.3,1111122 
TCOON,ioos:station:TCOON:127:1,2016-11-05T18:30:00Z,28.2598,-96.7737,0.0,16.3,1111122 
TCOON,ioos:station:TCOON:127:1,2016-11-05T19:30:00Z,28.2598,-96.7737,0.0,16.2,1111122 
TCOON,ioos:station:TCOON:127:1,2016-11-05T20:30:00Z,28.2598,-96.7737,0.0,16.2,1111122 
TCOON,ioos:station:TCOON:127:1,2016-11-05T21:30:00Z,28.2598,-96.7737,0.0,15.9,1111122 
TCOON,ioos:station:TCOON:127:1,2016-11-05T22:30:00Z,28.2598,-96.7737,0.0,15.5,1111122 
TCOON,ioos:station:TCOON:127:1,2016-11-06T00:30:00Z,28.2598,-96.7737,0.0,15.4,1111122 
TCOON,ioos:station:TCOON:127:1,2016-11-06T01:30:00Z,28.2598,-96.7737,0.0,15.4,1111122 
TCOON,ioos:station:TCOON:127:1,2016-11-06T02:30:00Z,28.2598,-96.7737,0.0,15.6,1111122 
TCOON,ioos:station:TCOON:127:1,2016-11-06T03:30:00Z,28.2598,-96.7737,0.0,15.5,1111122 
TCOON,ioos:station:TCOON:127:1,2016-11-06T04:30:00Z,28.2598,-96.7737,0.0,15.6,1111122 
TCOON,ioos:station:TCOON:127:1,2016-11-06T05:30:00Z,28.2598,-96.7737,0.0,16.0,1111122 
TCOON,ioos:station:TCOON:127:1,2016-11-06T06:30:00Z,28.2598,-96.7737,0.0,16.2,1111122 
TCOON,ioos:station:TCOON:127:1,2016-11-06T07:30:00Z,28.2598,-96.7737,0.0,16.2,1111122 
TCOON,ioos:station:TCOON:127:1,2016-11-06T08:30:00Z,28.2598,-96.7737,0.0,16.2,1111122 
TCOON,ioos:station:TCOON:127:1,2016-11-06T09:30:00Z,28.2598,-96.7737,0.0,15.8,1111122 
TCOON,ioos:station:TCOON:127:1,2016-11-06T10:30:00Z,28.2598,-96.7737,0.0,14.8,1111122 
TCOON,ioos:station:TCOON:127:1,2016-11-06T11:30:00Z,28.2598,-96.7737,0.0,15.8,1111122 
TCOON,ioos:station:TCOON:127:1,2016-11-06T12:30:00Z,28.2598,-96.7737,0.0,15.1,1111122 
TCOON,ioos:station:TCOON:127:1,2016-11-06T13:30:00Z,28.2598,-96.7737,0.0,15.2,1111122 
TCOON,ioos:station:TCOON:127:1,2016-11-06T15:30:00Z,28.2598,-96.7737,0.0,15.1,1111122 
TCOON,ioos:station:TCOON:127:1,2016-11-06T16:30:00Z,28.2598,-96.7737,0.0,14.7,1111122 
TCOON,ioos:station:TCOON:127:1,2016-11-06T17:30:00Z,28.2598,-96.7737,0.0,14.6,1111122 
TCOON,ioos:station:TCOON:127:1,2016-11-06T18:30:00Z,28.2598,-96.7737,0.0,14.4,1111122 
TCOON,ioos:station:TCOON:127:1,2016-11-06T19:30:00Z,28.2598,-96.7737,0.0,14.6,1111122 
TCOON,ioos:station:TCOON:127:1,2016-11-06T20:30:00Z,28.2598,-96.7737,0.0,14.2,1111122 
TCOON,ioos:station:TCOON:127:1,2016-11-06T21:30:00Z,28.2598,-96.7737,0.0,14.1,1111122 
TCOON,ioos:station:TCOON:127:1,2016-11-06T22:30:00Z,28.2598,-96.7737,0.0,14.1,1111122 
TCOON,ioos:station:TCOON:127:1,2016-11-07T00:30:00Z,28.2598,-96.7737,0.0,14.2,1111122 
TCOON,ioos:station:TCOON:127:1,2016-11-07T02:30:00Z,28.2598,-96.7737,0.0,14.3,1111122 
TCOON,ioos:station:TCOON:127:1,2016-11-07T08:30:00Z,28.2598,-96.7737,0.0,15.0,1111122 
TCOON,ioos:station:TCOON:127:1,2016-11-07T09:30:00Z,28.2598,-96.7737,0.0,15.0,1111122 
TCOON,ioos:station:TCOON:127:1,2016-11-07T10:30:00Z,28.2598,-96.7737,0.0,14.8,1111122 
TCOON,ioos:station:TCOON:127:1,2016-11-07T11:30:00Z,28.2598,-96.7737,0.0,14.6,1111122 
TCOON,ioos:station:TCOON:127:1,2016-11-07T12:30:00Z,28.2598,-96.7737,0.0,14.5,1111122 
TCOON,ioos:station:TCOON:127:1,2016-11-07T13:30:00Z,28.2598,-96.7737,0.0,14.6,1111122 
TCOON,ioos:station:TCOON:127:1,2016-11-07T14:30:00Z,28.2598,-96.7737,0.0,14.8,1111122 
TCOON,ioos:station:TCOON:127:1,2016-11-07T15:30:00Z,28.2598,-96.7737,0.0,14.9,1111122 
TCOON,ioos:station:TCOON:127:1,2016-11-07T16:30:00Z,28.2598,-96.7737,0.0,15.0,1111122 
TCOON,ioos:station:TCOON:127:1,2016-11-07T17:30:00Z,28.2598,-96.7737,0.0,15.0,1111122 
TCOON,ioos:station:TCOON:127:1,2016-11-07T18:30:00Z,28.2598,-96.7737,0.0,14.8,1111122 
TCOON,ioos:station:TCOON:127:1,2016-11-07T19:30:00Z,28.2598,-96.7737,0.0,14.8,1111122 
TCOON,ioos:station:TCOON:127:1,2016-11-07T23:30:00Z,28.2598,-96.7737,0.0,14.8,1111122 
TCOON,ioos:station:TCOON:127:1,2016-11-08T00:30:00Z,28.2598,-96.7737,0.0,14.6,1111122 
TCOON,ioos:station:TCOON:127:1,2016-11-08T01:30:00Z,28.2598,-96.7737,0.0,14.4,1111122 
TCOON,ioos:station:TCOON:127:1,2016-11-08T03:30:00Z,28.2598,-96.7737,0.0,14.4,1111122 
TCOON,ioos:station:TCOON:127:1,2016-11-08T05:30:00Z,28.2598,-96.7737,0.0,14.7,1111122 
TCOON,ioos:station:TCOON:127:1,2016-11-08T06:30:00Z,28.2598,-96.7737,0.0,14.8,1111122 
TCOON,ioos:station:TCOON:127:1,2016-11-08T07:30:00Z,28.2598,-96.7737,0.0,14.8,1111122 
TCOON,ioos:station:TCOON:127:1,2016-11-08T10:30:00Z,28.2598,-96.7737,0.0,14.9,1111122 
TCOON,ioos:station:TCOON:127:1,2016-11-08T11:30:00Z,28.2598,-96.7737,0.0,14.7,1111122 
TCOON,ioos:station:TCOON:127:1,2016-11-08T14:30:00Z,28.2598,-96.7737,0.0,14.5,1111122 
TCOON,ioos:station:TCOON:127:1,2016-11-08T15:30:00Z,28.2598,-96.7737,0.0,14.4,1111122 
TCOON,ioos:station:TCOON:127:1,2016-11-08T16:30:00Z,28.2598,-96.7737,0.0,13.9,1111122 
TCOON,ioos:station:TCOON:127:1,2016-11-08T17:30:00Z,28.2598,-96.7737,0.0,14.0,1111122 
TCOON,ioos:station:TCOON:127:1,2016-11-08T18:30:00Z,28.2598,-96.7737,0.0,14.1,1111122 
TCOON,ioos:station:TCOON:127:1,2016-11-08T19:30:00Z,28.2598,-96.7737,0.0,13.9,1111122 
TCOON,ioos:station:TCOON:127:1,2016-11-08T20:30:00Z,28.2598,-96.7737,0.0,14.0,1111122 
TCOON,ioos:station:TCOON:127:1,2016-11-08T21:30:00Z,28.2598,-96.7737,0.0,13.9,1111122 
TCOON,ioos:station:TCOON:127:1,2016-11-08T22:30:00Z,28.2598,-96.7737,0.0,13.8,1111122 
TCOON,ioos:station:TCOON:127:1,2016-11-08T23:30:00Z,28.2598,-96.7737,0.0,14.0,1111122 
TCOON,ioos:station:TCOON:127:1,2016-11-09T00:30:00Z,28.2598,-96.7737,0.0,14.1,1111122 
TCOON,ioos:station:TCOON:127:1,2016-11-09T01:30:00Z,28.2598,-96.7737,0.0,14.3,1111122 
TCOON,ioos:station:TCOON:127:1,2016-11-09T02:30:00Z,28.2598,-96.7737,0.0,14.3,1111122 
TCOON,ioos:station:TCOON:127:1,2016-11-09T03:30:00Z,28.2598,-96.7737,0.0,14.2,1111122 
TCOON,ioos:station:TCOON:127:1,2016-11-09T04:30:00Z,28.2598,-96.7737,0.0,14.1,1111122 
TCOON,ioos:station:TCOON:127:1,2016-11-09T05:30:00Z,28.2598,-96.7737,0.0,14.1,1111122 
TCOON,ioos:station:TCOON:127:1,2016-11-09T06:30:00Z,28.2598,-96.7737,0.0,14.0,1111122 
TCOON,ioos:station:TCOON:127:1,2016-11-09T07:30:00Z,28.2598,-96.7737,0.0,13.8,1111122 
TCOON,ioos:station:TCOON:127:1,2016-11-09T09:30:00Z,28.2598,-96.7737,0.0,14.2,1111122 
TCOON,ioos:station:TCOON:127:1,2016-11-09T11:30:00Z,28.2598,-96.7737,0.0,14.7,1111122 
TCOON,ioos:station:TCOON:127:1,2016-11-09T12:30:00Z,28.2598,-96.7737,0.0,14.8,1111122 
TCOON,ioos:station:TCOON:127:1,2016-11-09T13:30:00Z,28.2598,-96.7737,0.0,14.9,1111122 
TCOON,ioos:station:TCOON:127:1,2016-11-09T14:30:00Z,28.2598,-96.7737,0.0,14.9,1111122 
TCOON,ioos:station:TCOON:127:1,2016-11-09T15:30:00Z,28.2598,-96.7737,0.0,14.8,1111122 
TCOON,ioos:station:TCOON:127:1,2016-11-09T16:30:00Z,28.2598,-96.7737,0.0,14.5,1111122 
TCOON,ioos:station:TCOON:127:1,2016-11-09T17:30:00Z,28.2598,-96.7737,0.0,11.4,1111122 
TCOON,ioos:station:TCOON:127:1,2016-11-09T18:30:00Z,28.2598,-96.7737,0.0,17.0,1111122 
TCOON,ioos:station:TCOON:127:1,2016-11-09T19:30:00Z,28.2598,-96.7737,0.0,16.9,1111122 
TCOON,ioos:station:TCOON:127:1,2016-11-09T20:30:00Z,28.2598,-96.7737,0.0,16.8,1111122 
TCOON,ioos:station:TCOON:127:1,2016-11-09T21:30:00Z,28.2598,-96.7737,0.0,16.6,1111122 
TCOON,ioos:station:TCOON:127:1,2016-11-09T22:30:00Z,28.2598,-96.7737,0.0,16.5,1111122 
TCOON,ioos:station:TCOON:127:1,2016-11-09T23:30:00Z,28.2598,-96.7737,0.0,16.5,1111122 
TCOON,ioos:station:TCOON:127:1,2016-11-10T00:30:00Z,28.2598,-96.7737,0.0,16.4,1111122 
TCOON,ioos:station:TCOON:127:1,2016-11-10T01:30:00Z,28.2598,-96.7737,0.0,16.4,1111122 
TCOON,ioos:station:TCOON:127:1,2016-11-10T02:30:00Z,28.2598,-96.7737,0.0,16.3,1111122 
TCOON,ioos:station:TCOON:127:1,2016-11-10T03:30:00Z,28.2598,-96.7737,0.0,16.0,1111122 
TCOON,ioos:station:TCOON:127:1,2016-11-10T04:30:00Z,28.2598,-96.7737,0.0,15.8,1111122 
TCOON,ioos:station:TCOON:127:1,2016-11-10T05:30:00Z,28.2598,-96.7737,0.0,15.5,1111122 
TCOON,ioos:station:TCOON:127:1,2016-11-10T07:00:00Z,28.2598,-96.7737,0.0,14.9,1111122 
TCOON,ioos:station:TCOON:127:1,2016-11-10T07:30:00Z,28.2598,-96.7737,0.0,14.8,1111122 
TCOON,ioos:station:TCOON:127:1,2016-11-10T08:30:00Z,28.2598,-96.7737,0.0,14.4,1111122 
TCOON,ioos:station:TCOON:127:1,2016-11-10T09:30:00Z,28.2598,-96.7737,0.0,14.2,1111122 
TCOON,ioos:station:TCOON:127:1,2016-11-10T10:30:00Z,28.2598,-96.7737,0.0,13.8,1111122 
TCOON,ioos:station:TCOON:127:1,2016-11-10T11:30:00Z,28.2598,-96.7737,0.0,13.8,1111122 
TCOON,ioos:station:TCOON:127:1,2016-11-10T12:30:00Z,28.2598,-96.7737,0.0,13.3,1111122 
TCOON,ioos:station:TCOON:127:1,2016-11-10T13:30:00Z,28.2598,-96.7737,0.0,14.8,1111122 
TCOON,ioos:station:TCOON:127:1,2016-11-10T14:30:00Z,28.2598,-96.7737,0.0,13.9,1111122 
TCOON,ioos:station:TCOON:127:1,2016-11-10T15:30:00Z,28.2598,-96.7737,0.0,14.7,1111122 
TCOON,ioos:station:TCOON:127:1,2016-11-10T16:30:00Z,28.2598,-96.7737,0.0,16.3,1111122 
TCOON,ioos:station:TCOON:127:1,2016-11-10T17:30:00Z,28.2598,-96.7737,0.0,15.4,1111122 
TCOON,ioos:station:TCOON:127:1,2016-11-10T18:30:00Z,28.2598,-96.7737,0.0,14.6,1111122 
TCOON,ioos:station:TCOON:127:1,2016-11-10T19:30:00Z,28.2598,-96.7737,0.0,14.3,1111122 
TCOON,ioos:station:TCOON:127:1,2016-11-10T20:30:00Z,28.2598,-96.7737,0.0,16.1,1111122 
TCOON,ioos:station:TCOON:127:1,2016-11-10T21:30:00Z,28.2598,-96.7737,0.0,16.6,1111122 
TCOON,ioos:station:TCOON:127:1,2016-11-10T23:30:00Z,28.2598,-96.7737,0.0,17.2,1111122 
TCOON,ioos:station:TCOON:127:1,2016-11-11T00:30:00Z,28.2598,-96.7737,0.0,17.7,1111122 
TCOON,ioos:station:TCOON:127:1,2016-11-11T01:30:00Z,28.2598,-96.7737,0.0,17.0,1111122 
TCOON,ioos:station:TCOON:127:1,2016-11-11T02:30:00Z,28.2598,-96.7737,0.0,16.8,1111122 
TCOON,ioos:station:TCOON:127:1,2016-11-11T03:30:00Z,28.2598,-96.7737,0.0,16.7,1111122 
TCOON,ioos:station:TCOON:127:1,2016-11-11T04:30:00Z,28.2598,-96.7737,0.0,16.6,1111122 
TCOON,ioos:station:TCOON:127:1,2016-11-11T05:30:00Z,28.2598,-96.7737,0.0,16.6,1111122 
TCOON,ioos:station:TCOON:127:1,2016-11-11T06:30:00Z,28.2598,-96.7737,0.0,16.6,1111122 
TCOON,ioos:station:TCOON:127:1,2016-11-11T07:30:00Z,28.2598,-96.7737,0.0,16.6,1111122 
TCOON,ioos:station:TCOON:127:1,2016-11-11T08:30:00Z,28.2598,-96.7737,0.0,16.6,1111122 
TCOON,ioos:station:TCOON:127:1,2016-11-11T09:30:00Z,28.2598,-96.7737,0.0,16.7,1111122 
TCOON,ioos:station:TCOON:127:1,2016-11-11T10:30:00Z,28.2598,-96.7737,0.0,16.3,1111122 
TCOON,ioos:station:TCOON:127:1,2016-11-11T11:30:00Z,28.2598,-96.7737,0.0,15.0,1111122 
TCOON,ioos:station:TCOON:127:1,2016-11-11T12:30:00Z,28.2598,-96.7737,0.0,14.8,1111122 
TCOON,ioos:station:TCOON:127:1,2016-11-11T13:30:00Z,28.2598,-96.7737,0.0,14.0,1111122 
TCOON,ioos:station:TCOON:127:1,2016-11-11T14:30:00Z,28.2598,-96.7737,0.0,14.2,1111122 
TCOON,ioos:station:TCOON:127:1,2016-11-11T15:30:00Z,28.2598,-96.7737,0.0,14.0,1111122 
TCOON,ioos:station:TCOON:127:1,2016-11-11T16:30:00Z,28.2598,-96.7737,0.0,13.8,1111122 
TCOON,ioos:station:TCOON:127:1,2016-11-11T18:30:00Z,28.2598,-96.7737,0.0,13.4,1111122 
TCOON,ioos:station:TCOON:127:1,2016-11-11T19:30:00Z,28.2598,-96.7737,0.0,13.6,1111122 
TCOON,ioos:station:TCOON:127:1,2016-11-11T20:30:00Z,28.2598,-96.7737,0.0,13.6,1111122 
TCOON,ioos:station:TCOON:127:1,2016-11-11T21:30:00Z,28.2598,-96.7737,0.0,13.6,1111122 
TCOON,ioos:station:TCOON:127:1,2016-11-11T22:30:00Z,28.2598,-96.7737,0.0,13.4,1111122 
TCOON,ioos:station:TCOON:127:1,2016-11-12T00:30:00Z,28.2598,-96.7737,0.0,13.4,1111122 
TCOON,ioos:station:TCOON:127:1,2016-11-12T01:30:00Z,28.2598,-96.7737,0.0,13.8,1111122 
TCOON,ioos:station:TCOON:127:1,2016-11-12T02:30:00Z,28.2598,-96.7737,0.0,13.6,1111122 
TCOON,ioos:station:TCOON:127:1,2016-11-12T03:30:00Z,28.2598,-96.7737,0.0,13.5,1111122 
TCOON,ioos:station:TCOON:127:1,2016-11-12T04:30:00Z,28.2598,-96.7737,0.0,13.4,1111122 
TCOON,ioos:station:TCOON:127:1,2016-11-12T05:30:00Z,28.2598,-96.7737,0.0,14.2,1111122 
TCOON,ioos:station:TCOON:127:1,2016-11-12T06:30:00Z,28.2598,-96.7737,0.0,13.6,1111122 
TCOON,ioos:station:TCOON:127:1,2016-11-12T07:30:00Z,28.2598,-96.7737,0.0,13.7,1111122 
TCOON,ioos:station:TCOON:127:1,2016-11-12T08:30:00Z,28.2598,-96.7737,0.0,13.6,1111122 
TCOON,ioos:station:TCOON:127:1,2016-11-12T10:30:00Z,28.2598,-96.7737,0.0,13.3,1111122 
TCOON,ioos:station:TCOON:127:1,2016-11-12T11:30:00Z,28.2598,-96.7737,0.0,13.3,1111122 
TCOON,ioos:station:TCOON:127:1,2016-11-12T12:30:00Z,28.2598,-96.7737,0.0,13.2,1111122 
TCOON,ioos:station:TCOON:127:1,2016-11-12T13:30:00Z,28.2598,-96.7737,0.0,13.3,1111122 
TCOON,ioos:station:TCOON:127:1,2016-11-12T14:30:00Z,28.2598,-96.7737,0.0,13.1,1111122 
TCOON,ioos:station:TCOON:127:1,2016-11-12T16:30:00Z,28.2598,-96.7737,0.0,13.2,1111122 
TCOON,ioos:station:TCOON:127:1,2016-11-12T18:30:00Z,28.2598,-96.7737,0.0,13.9,1111122 
TCOON,ioos:station:TCOON:127:1,2016-11-12T19:30:00Z,28.2598,-96.7737,0.0,13.9,1111122 
TCOON,ioos:station:TCOON:127:1,2016-11-12T20:30:00Z,28.2598,-96.7737,0.0,14.6,1111122 
TCOON,ioos:station:TCOON:127:1,2016-11-12T21:30:00Z,28.2598,-96.7737,0.0,16.0,1111122 
TCOON,ioos:station:TCOON:127:1,2016-11-12T22:30:00Z,28.2598,-96.7737,0.0,17.9,1111122 
TCOON,ioos:station:TCOON:127:1,2016-11-12T23:30:00Z,28.2598,-96.7737,0.0,16.9,1111122 
TCOON,ioos:station:TCOON:127:1,2016-11-13T00:30:00Z,28.2598,-96.7737,0.0,16.1,1111122 
TCOON,ioos:station:TCOON:127:1,2016-11-13T01:30:00Z,28.2598,-96.7737,0.0,16.7,1111122 
TCOON,ioos:station:TCOON:127:1,2016-11-13T02:30:00Z,28.2598,-96.7737,0.0,19.1,1111122 
TCOON,ioos:station:TCOON:127:1,2016-11-13T03:30:00Z,28.2598,-96.7737,0.0,18.7,1111122 
TCOON,ioos:station:TCOON:127:1,2016-11-13T04:30:00Z,28.2598,-96.7737,0.0,17.4,1111122 
TCOON,ioos:station:TCOON:127:1,2016-11-13T05:30:00Z,28.2598,-96.7737,0.0,18.4,1111122 
TCOON,ioos:station:TCOON:127:1,2016-11-13T06:30:00Z,28.2598,-96.7737,0.0,19.3,1111122 
TCOON,ioos:station:TCOON:127:1,2016-11-13T07:30:00Z,28.2598,-96.7737,0.0,20.0,1111122 
TCOON,ioos:station:TCOON:127:1,2016-11-13T08:30:00Z,28.2598,-96.7737,0.0,20.5,1111122 
TCOON,ioos:station:TCOON:127:1,2016-11-13T09:30:00Z,28.2598,-96.7737,0.0,20.2,1111122 
TCOON,ioos:station:TCOON:127:1,2016-11-13T10:30:00Z,28.2598,-96.7737,0.0,19.9,1111122 
TCOON,ioos:station:TCOON:127:1,2016-11-13T11:30:00Z,28.2598,-96.7737,0.0,20.6,1111122 
TCOON,ioos:station:TCOON:127:1,2016-11-13T12:30:00Z,28.2598,-96.7737,0.0,20.1,1111122 
TCOON,ioos:station:TCOON:127:1,2016-11-13T13:30:00Z,28.2598,-96.7737,0.0,20.6,1111122 
TCOON,ioos:station:TCOON:127:1,2016-11-13T14:30:00Z,28.2598,-96.7737,0.0,19.1,1111122 
TCOON,ioos:station:TCOON:127:1,2016-11-13T15:30:00Z,28.2598,-96.7737,0.0,16.8,1111122 
TCOON,ioos:station:TCOON:127:1,2016-11-13T16:30:00Z,28.2598,-96.7737,0.0,13.8,1111122 
TCOON,ioos:station:TCOON:127:1,2016-11-13T17:30:00Z,28.2598,-96.7737,0.0,13.4,1111122 
TCOON,ioos:station:TCOON:127:1,2016-11-13T18:30:00Z,28.2598,-96.7737,0.0,13.3,1111122 
TCOON,ioos:station:TCOON:127:1,2016-11-13T19:30:00Z,28.2598,-96.7737,0.0,13.4,1111122 
TCOON,ioos:station:TCOON:127:1,2016-11-13T20:30:00Z,28.2598,-96.7737,0.0,13.9,1111122 
TCOON,ioos:station:TCOON:127:1,2016-11-13T22:30:00Z,28.2598,-96.7737,0.0,14.8,1111122 
TCOON,ioos:station:TCOON:127:1,2016-11-13T23:30:00Z,28.2598,-96.7737,0.0,15.5,1111122 
TCOON,ioos:station:TCOON:127:1,2016-11-14T00:30:00Z,28.2598,-96.7737,0.0,16.0,1111122 
TCOON,ioos:station:TCOON:127:1,2016-11-14T01:30:00Z,28.2598,-96.7737,0.0,16.6,1111122 
TCOON,ioos:station:TCOON:127:1,2016-11-14T02:30:00Z,28.2598,-96.7737,0.0,16.5,1111122 
TCOON,ioos:station:TCOON:127:1,2016-11-14T03:30:00Z,28.2598,-96.7737,0.0,17.3,1111122 
TCOON,ioos:station:TCOON:127:1,2016-11-14T04:30:00Z,28.2598,-96.7737,0.0,16.8,1111122 
TCOON,ioos:station:TCOON:127:1,2016-11-14T05:30:00Z,28.2598,-96.7737,0.0,17.2,1111122 
TCOON,ioos:station:TCOON:127:1,2016-11-14T06:30:00Z,28.2598,-96.7737,0.0,17.2,1111122 
TCOON,ioos:station:TCOON:127:1,2016-11-14T08:30:00Z,28.2598,-96.7737,0.0,17.5,1111122 
TCOON,ioos:station:TCOON:127:1,2016-11-14T09:30:00Z,28.2598,-96.7737,0.0,17.4,1111122 
TCOON,ioos:station:TCOON:127:1,2016-11-14T10:30:00Z,28.2598,-96.7737,0.0,17.7,1111122 
TCOON,ioos:station:TCOON:127:1,2016-11-14T11:30:00Z,28.2598,-96.7737,0.0,17.9,1111122 
TCOON,ioos:station:TCOON:127:1,2016-11-14T12:30:00Z,28.2598,-96.7737,0.0,16.3,1111122 
TCOON,ioos:station:TCOON:127:1,2016-11-14T13:30:00Z,28.2598,-96.7737,0.0,16.3,1111122 
TCOON,ioos:station:TCOON:127:1,2016-11-14T14:30:00Z,28.2598,-96.7737,0.0,16.5,1111122 
TCOON,ioos:station:TCOON:127:1,2016-11-14T15:30:00Z,28.2598,-96.7737,0.0,15.6,1111122 
TCOON,ioos:station:TCOON:127:1,2016-11-14T16:30:00Z,28.2598,-96.7737,0.0,16.0,1111122 
TCOON,ioos:station:TCOON:127:1,2016-11-14T18:30:00Z,28.2598,-96.7737,0.0,15.5,1111122 
TCOON,ioos:station:TCOON:127:1,2016-11-14T19:30:00Z,28.2598,-96.7737,0.0,15.1,1111122 
TCOON,ioos:station:TCOON:127:1,2016-11-14T20:30:00Z,28.2598,-96.7737,0.0,13.9,1111122 
TCOON,ioos:station:TCOON:127:1,2016-11-14T21:30:00Z,28.2598,-96.7737,0.0,14.0,1111122 
TCOON,ioos:station:TCOON:127:1,2016-11-14T22:30:00Z,28.2598,-96.7737,0.0,14.0,1111122 
TCOON,ioos:station:TCOON:127:1,2016-11-14T23:30:00Z,28.2598,-96.7737,0.0,14.1,1111122 
TCOON,ioos:station:TCOON:127:1,2016-11-15T00:30:00Z,28.2598,-96.7737,0.0,14.3,1111122 
TCOON,ioos:station:TCOON:127:1,2016-11-15T01:30:00Z,28.2598,-96.7737,0.0,14.5,1111122 
TCOON,ioos:station:TCOON:127:1,2016-11-15T02:30:00Z,28.2598,-96.7737,0.0,15.4,1111122 
TCOON,ioos:station:TCOON:127:1,2016-11-15T03:30:00Z,28.2598,-96.7737,0.0,15.7,1111122 
TCOON,ioos:station:TCOON:127:1,2016-11-15T04:30:00Z,28.2598,-96.7737,0.0,15.6,1111122 
TCOON,ioos:station:TCOON:127:1,2016-11-15T05:30:00Z,28.2598,-96.7737,0.0,16.3,1111122 
TCOON,ioos:station:TCOON:127:1,2016-11-15T08:30:00Z,28.2598,-96.7737,0.0,18.4,1111122 